Home   Weather   Hartberg   Past weeks

Flag for Austria Past Weather in Hartberg, Styria, Austria — Yesterday and Last 2 Weeks

Now
70 °F

Passing clouds.


Feels Like: 70 °F
Forecast: 45 / 65 °F
Wind: 6 mph from Southeast

Location: Graz-Thalerhof-Flughafen

Current Time: Sep 25, 2016 at 2:25:29 PM

Latest Report: Sep 25, 2016 at 1:50 PM


Visibility: N/A

Pressure: 30.12 "Hg

Humidity: 50%

Dew Point: 50 °F

Location of HartbergLocation

Past Weather in Hartberg — Graph

°F

Hartberg Temperature Yesterday

Maximum temperature yesterday: 70 °F (at 1:50 PM)
Minimum temperature yesterday: 46 °F (at 4:20 AM)
Average temperature yesterday: 57 °F

High & Low Weather Summary for the Past Weeks

 TemperatureHumidityPressure
High82 °F (Sep 12, 2:20 PM)100% (Sep 11, 4:50 AM)30.36 "Hg (Sep 11, 4:50 AM)
Low41 °F (Sep 23, 5:50 AM)42% (Sep 11, 3:50 PM)29.80 "Hg (Sep 17, 4:20 AM)
Average62 °F77%30.05 "Hg
* Reported Sep 10 12:20 PM — Sep 25 12:50 PM, Hartberg, Weather by CustomWeather, © 2016

Note: Actual official high and low records may vary slightly from our data, if they occured in-between our weather recording intervals... More about our weather records

Advertising

Hartberg Weather History for the Previous 24 Hours

Scroll right to see more
 ConditionsComfort  
Time TempWeatherWind HumidityBarometerVisibility
12:50 PM
Sun, Sep 25
68 °FScattered clouds.6 mph56%30.15 "HgN/A
12:20 PM66 °FScattered clouds.3 mph56%30.18 "HgN/A
11:50 AM64 °FScattered clouds.2 mph64%30.18 "HgN/A
11:20 AM63 °FScattered clouds.3 mph64%30.18 "HgN/A
10:50 AM61 °FScattered clouds.2 mph68%30.18 "HgN/A
10:20 AM59 °FPassing clouds.2 mph72%30.21 "HgN/A
9:50 AM57 °FPassing clouds.3 mph77%30.21 "HgN/A
9:20 AM54 °FPassing clouds.3 mph82%30.21 "HgN/A
8:50 AM52 °FPassing clouds.1 mph88%30.21 "HgN/A
8:20 AM48 °FCool.1 mph94%30.21 "Hg1 mi
7:50 AM45 °FQuite cool.2 mph93%30.21 "Hg1 mi
7:20 AM45 °FFog.1 mph93%30.21 "Hg1 mi
6:50 AM43 °FFog.1 mph100%30.21 "Hg2 mi
6:20 AM43 °FFog.2 mph93%30.21 "Hg2 mi
5:50 AM45 °FPassing clouds.1 mph93%30.21 "Hg1 mi
5:20 AM43 °FLight fog.1 mph100%30.24 "Hg1 mi
4:50 AM45 °FLight fog.1 mph100%30.24 "Hg1 mi
4:20 AM46 °FFog.1 mph93%30.24 "Hg2 mi
3:50 AM46 °FRain. Fog.No wind93%30.24 "Hg3 mi
3:20 AM46 °FFog.1 mph93%30.24 "Hg3 mi
2:50 AM45 °FQuite cool.1 mph100%30.24 "Hg6 mi
2:20 AM46 °FCool.1 mph93%30.24 "HgN/A
1:50 AM46 °FLight fog.1 mph100%30.24 "Hg1 mi
1:20 AM48 °FFog.1 mph100%30.24 "HgN/A
12:50 AM48 °FRain. Overcast.2 mph100%30.27 "Hg2 mi
12:20 AM50 °FCool.1 mph94%30.27 "Hg6 mi
11:50 PM
Sat, Sep 24
50 °FCool.1 mph94%30.27 "Hg6 mi
11:20 PM50 °FClear.1 mph94%30.27 "Hg10 mi
10:50 PM52 °FClear.1 mph94%30.27 "Hg10 mi
10:20 PM52 °FClear.1 mph94%30.27 "Hg10 mi
9:50 PM54 °FPassing clouds.1 mph88%30.27 "HgN/A
9:20 PM55 °FPassing clouds.2 mph82%30.27 "HgN/A
8:50 PM57 °FPassing clouds.2 mph77%30.27 "HgN/A
8:20 PM57 °FPassing clouds.1 mph77%30.27 "HgN/A
7:50 PM59 °FPassing clouds.1 mph72%30.27 "HgN/A
7:20 PM59 °FPassing clouds.2 mph72%30.27 "HgN/A
6:50 PM63 °FPassing clouds.3 mph59%30.27 "HgN/A
6:20 PM64 °FPartly sunny.5 mph60%30.27 "HgN/A
5:50 PM68 °FPartly sunny.5 mph53%30.27 "HgN/A
5:20 PM68 °FPartly sunny.3 mph53%30.27 "HgN/A
4:50 PM70 °FPartly sunny.6 mph46%30.27 "HgN/A
4:20 PM70 °FPartly sunny.7 mph46%30.27 "HgN/A
3:50 PM70 °FScattered clouds.5 mph43%30.27 "HgN/A
3:20 PM70 °FScattered clouds.6 mph43%30.27 "HgN/A
2:50 PM70 °FPassing clouds.3 mph43%30.30 "HgN/A
2:20 PM70 °FPassing clouds.5 mph46%30.30 "HgN/A
Weather by CustomWeather, © 2016

See weather overviewHow to use our weather pages